Flag for Canada Weather past 2 weeks in Whistler, British Columbia, Canada

Now
62 °F

Cool.


Feels Like: 62 °F
Forecast: 58 / 90 °F
Wind: 1 mph from East

Location: Squamish Airport

Current Time: Jul 6, 2015 at 6:46:21 AM

Latest Report: Jul 6, 2015 at 6:00 AM


Visibility: N/A

Pressure: 29.92 "Hg (27.64 "Hg at 674m altitude)

Humidity: 62%

Dew point: 49 °F

Location of WhistlerLocation

Historic Weather in Whistler — Graph

°F

Whistler temperature yesterday

Maximum temperature yesterday: 96 °F (at 3:00 PM)
Minimum temperature yesterday: 67 °F (at 12:00 AM)
Average temperature yesterday: 84 °F

Past Weeks' High & Low Weather Summary

 TemperatureHumidityPressure
High96 °F (Jul 5, 3:00 PM)96% (Jun 21, 6:00 AM)30.13 "Hg (Jun 21, 6:00 AM)
Low46 °F (Jun 21, 6:00 AM)10% (Jul 5, 2:00 PM)29.71 "Hg (Jul 4, 6:00 PM)
Average73 °F53%29.95 "Hg
* Reported Jun 21 5:00 AM — Jul 6 5:00 AM, Whistler, Weather by CustomWeather, © 2015

Note: Actual official high and low records may vary slightly from our data, if they occured in-between our weather recording intervals... More about our weather records

Advertising

Whistler weather history for previous 24 hours

 ConditionsComfort  
Time TempWeatherWind HumidityBarometerVisibility
5:00 AM
Mon, Jul 6
63 °FMild.1 mph59%29.91 "HgN/A
4:00 AM64 °FMild.No wind51%29.90 "HgN/A
3:00 AM64 °FMild.1 mph58%29.88 "HgN/A
2:00 AM65 °FMild.1 mph53%29.87 "HgN/A
1:00 AM67 °FMild.2 mph52%29.86 "HgN/A
12:00 AM68 °FMild.2 mph50%29.85 "HgN/A
11:00 PM
Sun, Jul 5
70 °FMild.No wind49%29.84 "HgN/A
10:00 PM73 °FMild.2 mph45%29.82 "HgN/A
9:00 PM77 °FMild.No wind40%29.81 "HgN/A
8:00 PM83 °FPleasantly warm.No wind28%29.79 "HgN/A
7:00 PM87 °FPleasantly warm.2 mph21%29.78 "HgN/A
6:00 PM92 °FHot.6 mph14%29.78 "HgN/A
5:00 PM92 °FHot.7 mph13%29.78 "HgN/A
4:00 PM93 °FHot.9 mph14%29.78 "HgN/A
3:00 PM96 °FExtremely hot.8 mph13%29.78 "HgN/A
2:00 PM96 °FExtremely hot.5 mph10%29.80 "HgN/A
1:00 PM93 °FHot.6 mph11%29.82 "HgN/A
12:00 PM91 °FHot.7 mph13%29.83 "HgN/A
11:00 AM89 °FHot.7 mph14%29.85 "HgN/A
10:00 AM86 °FPleasantly warm.10 mph16%29.87 "HgN/A
9:00 AM82 °FPleasantly warm.9 mph19%29.88 "HgN/A
8:00 AM81 °FPleasantly warm.12 mph19%29.88 "HgN/A
7:00 AM79 °FPleasantly warm.9 mph20%29.87 "HgN/A
6:00 AM79 °FPleasantly warm.10 mph20%29.86 "HgN/A
Weather by CustomWeather, © 2015

See weather overviewHow to use our weather pages